QPF
0.00 0.00 0.00 0.00 0.00 0.00 0.00 0.00 0.00 0.00 0.00 0.00 0.00 0.00 0.00 0.00 0.00 0.00 0.00 0.00 0.00 0.00 0.00 0.00 0.00 0.00 0.00 0.00 0.00 0.00 0.00 0.00 0.00 0.00 0.00 0.00 0.00 0.00 0.00 0.00 0.00 0.00 0.00 0.00 0.00
0.00 0.00 0.00 0.00 0.00 0.00 0.00 0.00 0.00 0.00 0.00 0.00 0.00 0.00 0.00 0.00 0.00 0.00 0.00 0.00 0.00 0.00 0.00 0.00 0.00 0.00 0.00 0.00 0.00 0.00 0.00 0.00 0.00 0.00 0.00 0.00 0.00 0.00 0.00 0.00 0.00 0.00 0.00 0.00 0.00
0.00 0.00 0.00 0.00 0.00 0.00 0.00 0.00 0.00 0.00 0.00 0.00 0.00 0.00 0.00 0.00 0.00 0.00 0.00 0.00 0.00 0.00 0.00 0.00 0.00 0.00 0.00 0.00 0.00 0.00 0.00 0.00 0.00 0.00 0.00 0.00 0.00 0.00 0.00 0.00 0.00 0.00 0.00 0.00 0.00
0.00 0.00 0.00 0.00 0.00 0.00 0.00 0.00 0.00 0.00 0.00 0.00 0.00 0.00 0.00 0.00 0.00 0.00 0.00 0.00 0.00 0.00 0.00 0.00 0.00 0.00 0.00 0.00 0.00 0.00 0.00 0.00 0.00 0.00 0.00 0.00 0.00 0.00 0.00 0.00 0.00 0.00 0.00 0.00 0.00
0.00 0.00 0.00 0.00 0.00 0.00 0.00 0.00 0.00 0.00 0.00 0.00 0.00 0.00 0.00 0.00 0.00 0.00 0.00 0.00 0.00 0.00 0.00 0.00 0.00 0.01 0.01 0.00 0.00 0.00 0.00 0.00 0.00 0.00 0.00 0.00 0.00 0.00 0.00 0.00 0.00 0.00 0.00 0.00 0.00
0.00 0.00 0.00 0.00 0.00 0.00 0.00 0.00 0.00 0.00 0.00 0.00 0.00 0.00 0.00 0.00 0.00 0.00 0.00 0.00 0.00 0.00 0.00 0.00 0.02 0.03 0.01 0.01 0.00 0.00 0.00 0.00 0.00 0.00 0.00 0.00 0.00 0.00 0.00 0.00 0.00 0.00 0.00 0.00 0.00
0.00 0.00 0.00 0.00 0.00 0.00 0.00 0.00 0.00 0.00 0.00 0.00 0.00 0.00 0.00 0.00 0.00 0.00 0.00 0.00 0.00 0.00 0.00 0.02 0.01 0.00 0.00 0.00 0.00 0.00 0.00 0.00 0.00 0.00 0.00 0.00 0.00 0.00 0.00 0.00 0.00 0.00 0.00 0.00 0.00
0.00 0.00 0.00 0.00 0.00 0.00 0.00 0.00 0.00 0.00 0.00 0.00 0.00 0.00 0.00 0.00 0.00 0.00 0.00 0.00 0.00 0.00 0.00 0.01 0.07 0.04 0.01 0.00 0.00 0.01 0.01 0.01 0.00 0.00 0.00 0.00 0.00 0.00 0.00 0.00 0.00 0.00 0.00 0.00 0.00
0.00 0.00 0.00 0.00 0.00 0.00 0.00 0.00 0.00 0.00 0.00 0.00 0.00 0.00 0.00 0.00 0.00 0.00 0.00 0.00 0.00 0.00 0.00 0.01 0.03 0.03 0.02 0.01 0.00 0.01 0.01 0.00 0.00 0.00 0.00 0.00 0.00 0.00 0.00 0.00 0.00 0.00 0.00 0.00 0.00
0.00 0.00 0.00 0.00 0.00 0.00 0.00 0.00 0.00 0.00 0.00 0.00 0.00 0.00 0.00 0.00 0.00 0.00 0.00 0.00 0.00 0.00 0.00 0.00 0.00 0.00 0.00 0.00 0.01 0.02 0.03 0.00 0.00 0.01 0.01 0.00 0.00 0.00 0.00 0.00 0.00 0.01 0.00 0.00 0.00
0.00 0.00 0.00 0.00 0.00 0.00 0.00 0.00 0.00 0.00 0.00 0.00 0.00 0.00 0.00 0.00 0.00 0.00 0.00 0.00 0.00 0.00 0.00 0.00 0.00 0.00 0.00 0.00 0.00 0.00 0.00 0.00 0.01 0.02 0.01 0.00 0.00 0.00 0.00 0.00 0.00 0.01 0.01 0.00 0.00
0.00 0.00 0.00 0.00 0.00 0.00 0.00 0.00 0.00 0.00 0.00 0.00 0.00 0.00 0.00 0.00 0.00 0.00 0.00 0.00 0.00 0.00 0.00 0.00 0.00 0.00 0.00 0.00 0.01 0.02 0.01 0.00 0.01 0.00 0.00 0.00 0.01 0.01 0.00 0.00 0.00 0.00 0.00 0.00 0.00
0.00 0.00 0.00 0.00 0.00 0.00 0.00 0.00 0.00 0.00 0.00 0.00 0.00 0.00 0.00 0.00 0.00 0.00 0.00 0.00 0.00 0.00 0.00 0.00 0.00 0.00 0.00 0.00 0.00 0.00 0.01 0.00 0.00 0.00 0.00 0.00 0.00 0.00 0.00 0.00 0.00 0.00 0.00 0.00 0.00
0.00 0.00 0.00 0.00 0.00 0.00 0.00 0.00 0.00 0.00 0.00 0.00 0.00 0.00 0.00 0.00 0.00 0.00 0.00 0.00 0.00 0.00 0.00 0.00 0.00 0.00 0.00 0.00 0.00 0.00 0.00 0.00 0.00 0.00 0.00 0.00 0.00 0.00 0.00 0.00 0.00 0.00 0.00 0.00 0.00
0.00 0.00 0.00 0.00 0.00 0.00 0.00 0.00 0.00 0.00 0.00 0.00 0.00 0.00 0.00 0.00 0.00 0.00 0.00 0.00 0.00 0.00 0.00 0.00 0.00 0.00 0.00 0.00 0.02 0.00 0.00 0.00 0.03 0.03 0.00 0.00 0.00 0.00 0.00 0.00 0.00 0.00 0.00 0.00 0.00
0.00 0.00 0.00 0.00 0.00 0.00 0.00 0.00 0.00 0.00 0.00 0.00 0.00 0.00 0.00 0.00 0.00 0.00 0.00 0.00 0.00 0.00 0.00 0.00 0.00 0.00 0.00 0.01 0.01 0.00 0.00 0.02 0.05 0.02 0.00 0.00 0.00 0.00 0.00 0.00 0.00 0.00 0.00 0.00 0.00
0.00 0.00 0.00 0.00 0.00 0.00 0.00 0.00 0.00 0.00 0.00 0.00 0.00 0.00 0.00 0.00 0.00 0.00 0.00 0.00 0.00 0.00 0.00 0.00 0.00 0.00 0.01 0.00 0.00 0.00 0.03 0.04 0.03 0.01 0.00 0.00 0.00 0.00 0.00 0.00 0.00 0.00 0.00 0.00 0.00
0.00 0.00 0.00 0.00 0.00 0.00 0.00 0.00 0.00 0.00 0.00 0.00 0.00 0.00 0.00 0.00 0.00 0.00 0.00 0.00 0.00 0.00 0.00 0.00 0.00 0.00 0.02 0.01 0.00 0.00 0.02 0.03 0.00 0.00 0.00 0.00 0.00 0.00 0.00 0.00 0.00 0.00 0.00 0.00 0.00
0.00 0.00 0.00 0.00 0.00 0.00 0.00 0.00 0.00 0.00 0.00 0.00 0.00 0.00 0.00 0.00 0.00 0.00 0.00 0.00 0.00 0.00 0.00 0.00 0.00 0.00 0.00 0.00 0.00 0.00 0.00 0.02 0.01 0.00 0.00 0.00 0.00 0.00 0.00 0.00 0.00 0.00 0.00 0.00 0.00
0.00 0.00 0.00 0.00 0.00 0.00 0.00 0.00 0.00 0.00 0.00 0.00 0.00 0.00 0.00 0.00 0.00 0.00 0.00 0.00 0.00 0.00 0.00 0.00 0.00 0.00 0.00 0.00 0.00 0.00 0.00 0.01 0.01 0.01 0.00 0.00 0.00 0.00 0.00 0.00 0.00 0.00 0.00 0.00 0.00
0.00 0.00 0.00 0.00 0.00 0.00 0.00 0.00 0.00 0.00 0.00 0.00 0.00 0.00 0.00 0.00 0.00 0.00 0.00 0.00 0.00 0.00 0.00 0.00 0.00 0.00 0.00 0.00 0.00 0.00 0.00 0.00 0.00 0.00 0.00 0.00 0.00 0.00 0.00 0.00 0.00 0.00 0.00 0.00 0.00
0.00 0.00 0.00 0.00 0.00 0.00 0.00 0.00 0.00 0.00 0.00 0.00 0.00 0.00 0.00 0.00 0.00 0.00 0.00 0.00 0.00 0.00 0.00 0.00 0.00 0.00 0.00 0.00 0.00 0.00 0.00 0.00 0.00 0.00 0.00 0.00 0.00 0.00 0.00 0.00 0.00 0.00 0.00 0.00 0.00
0.00 0.00 0.00 0.00 0.00 0.00 0.00 0.00 0.00 0.00 0.00 0.00 0.00 0.00 0.00 0.00 0.00 0.00 0.00 0.00 0.00 0.00 0.00 0.00 0.00 0.00 0.00 0.00 0.00 0.00 0.00 0.00 0.00 0.00 0.00 0.00 0.00 0.00 0.00 0.00 0.00 0.00 0.00 0.00 0.00
0.00 0.00 0.00 0.00 0.00 0.00 0.00 0.00 0.00 0.00 0.00 0.00 0.00 0.00 0.00 0.00 0.00 0.00 0.00 0.00 0.00 0.00 0.00 0.00 0.00 0.00 0.00 0.00 0.00 0.00 0.00 0.00 0.00 0.00 0.00 0.00 0.00 0.00 0.00 0.00 0.00 0.00 0.00 0.00 0.00
0.00 0.00 0.00 0.00 0.00 0.00 0.00 0.00 0.00 0.00 0.00 0.00 0.00 0.00 0.00 0.00 0.00 0.00 0.00 0.00 0.00 0.00 0.00 0.00 0.00 0.00 0.00 0.00 0.00 0.00 0.00 0.00 0.00 0.00 0.00 0.00 0.00 0.00 0.00 0.00 0.00 0.00 0.00 0.00 0.00
0.00 0.00 0.00 0.00 0.00 0.00 0.00 0.00 0.00 0.00 0.00 0.00 0.00 0.00 0.00 0.00 0.00 0.00 0.00 0.00 0.00 0.00 0.00 0.00 0.00 0.00 0.00 0.00 0.00 0.00 0.00 0.00 0.00 0.00 0.00 0.00 0.00 0.00 0.00 0.00 0.00 0.00 0.00 0.00 0.00
0.00 0.00 0.00 0.00 0.00 0.00 0.00 0.00 0.00 0.00 0.00 0.00 0.00 0.00 0.00 0.00 0.00 0.00 0.00 0.00 0.00 0.00 0.00 0.00 0.00 0.00 0.00 0.00 0.00 0.00 0.00 0.00 0.00 0.00 0.00 0.00 0.00 0.00 0.00 0.00 0.00 0.00 0.00 0.00 0.00
MSLP
1016.27 1015.87 1015.57 1015.31 1015.11 1014.84 1014.57 1014.33 1014.04 1013.71 1013.39 1013.06 1012.65 1012.24 1011.78 1011.43 1010.21 1010.52 1009.28 1007.51 1007.68 1007.69 1008.09 1008.71 1008.88 1009.28 1009.60 1010.22 1010.50 1010.45 1010.31 1009.15 1007.97 1007.68 1007.97 1007.65 1008.21 1009.31 1009.43 1010.15 1010.81 1010.92 1011.65 1012.59 1013.84
1016.30 1015.95 1015.53 1015.17 1014.85 1014.73 1014.52 1014.19 1013.91 1013.60 1013.21 1012.92 1012.56 1012.11 1011.68 1011.48 1010.72 1009.32 1006.96 1006.91 1007.12 1007.46 1008.08 1008.57 1008.89 1009.20 1009.97 1010.48 1010.60 1010.30 1010.04 1008.59 1007.32 1007.09 1007.16 1007.56 1007.73 1008.83 1009.71 1010.51 1011.66 1011.85 1012.45 1013.06 1013.94
1016.28 1015.96 1015.52 1015.09 1014.70 1014.48 1014.39 1014.22 1013.81 1013.44 1013.14 1012.77 1012.38 1011.94 1011.52 1011.42 1010.38 1007.03 1006.11 1006.63 1006.82 1007.20 1007.76 1008.05 1008.27 1008.70 1009.68 1010.25 1010.52 1010.09 1009.13 1007.70 1006.59 1006.53 1006.94 1007.66 1008.20 1008.89 1009.79 1010.86 1011.27 1011.98 1012.83 1013.69 1014.26
1016.21 1015.93 1015.63 1015.12 1014.69 1014.36 1014.15 1014.07 1013.89 1013.41 1012.95 1012.69 1012.21 1011.75 1011.30 1011.21 1009.11 1006.19 1006.24 1006.37 1006.77 1007.20 1007.66 1008.17 1008.32 1008.76 1009.48 1009.82 1009.65 1009.55 1008.26 1007.69 1006.39 1006.34 1006.98 1007.45 1008.34 1009.01 1009.32 1009.72 1010.67 1011.72 1012.61 1013.62 1014.20
1016.27 1015.84 1015.53 1015.15 1014.71 1014.29 1014.02 1013.82 1013.72 1013.39 1012.89 1012.47 1012.14 1011.70 1011.09 1010.27 1007.74 1005.99 1005.48 1006.47 1007.26 1007.52 1007.56 1007.64 1007.83 1008.82 1009.50 1009.68 1009.32 1009.16 1008.06 1007.09 1006.21 1005.70 1006.57 1007.13 1007.83 1008.59 1009.48 1009.86 1011.12 1012.11 1012.88 1013.23 1013.76
1016.16 1015.81 1015.36 1014.88 1014.51 1014.22 1013.89 1013.58 1013.46 1013.18 1012.74 1012.32 1012.09 1011.79 1011.17 1009.35 1006.42 1006.28 1006.26 1007.22 1007.08 1007.41 1007.61 1007.37 1007.49 1008.23 1008.96 1009.47 1009.32 1008.55 1008.08 1007.26 1006.66 1006.51 1006.42 1007.25 1008.20 1008.16 1009.71 1010.26 1011.25 1011.93 1012.56 1013.05 1013.55
1016.03 1015.52 1015.11 1014.80 1014.34 1013.90 1013.62 1013.41 1013.05 1012.79 1012.45 1012.17 1011.99 1011.79 1010.83 1007.59 1006.38 1006.46 1006.53 1006.86 1007.05 1007.13 1007.58 1007.31 1007.47 1008.14 1008.66 1009.03 1008.80 1008.60 1008.30 1007.31 1006.87 1007.16 1007.31 1007.53 1008.68 1008.77 1009.18 1010.20 1011.16 1011.77 1012.44 1013.07 1013.29
1015.93 1015.45 1014.96 1014.53 1014.10 1013.56 1013.06 1012.83 1012.63 1012.23 1011.97 1011.93 1011.92 1011.62 1009.80 1006.72 1006.52 1006.96 1006.98 1007.32 1007.32 1007.21 1007.52 1007.53 1007.69 1008.39 1008.91 1008.86 1008.75 1008.67 1008.74 1008.15 1007.62 1007.70 1007.94 1008.06 1008.50 1008.75 1009.49 1010.26 1011.09 1011.78 1011.91 1012.32 1012.60
1015.96 1015.43 1014.93 1014.35 1013.86 1013.37 1012.64 1012.11 1011.88 1011.60 1011.71 1011.71 1011.86 1011.22 1008.66 1006.45 1006.42 1005.58 1006.39 1006.81 1007.44 1007.72 1007.80 1007.85 1008.47 1008.80 1009.15 1009.48 1009.42 1009.55 1009.30 1008.89 1008.20 1007.81 1007.71 1008.42 1008.76 1008.89 1009.68 1010.16 1010.75 1011.08 1011.38 1011.52 1011.87
1015.78 1015.20 1014.68 1014.24 1013.66 1013.15 1012.41 1011.52 1011.54 1011.55 1011.76 1011.75 1011.21 1010.93 1007.90 1005.89 1005.24 1005.17 1005.57 1006.25 1006.93 1007.98 1008.47 1008.51 1008.90 1009.14 1009.52 1009.68 1009.63 1009.53 1009.60 1009.33 1008.75 1008.30 1008.28 1008.61 1008.83 1008.85 1009.29 1009.82 1010.29 1010.83 1010.92 1011.27 1011.24
1015.41 1014.95 1014.39 1013.89 1013.51 1013.09 1012.37 1011.50 1011.75 1011.54 1010.93 1009.50 1008.96 1008.03 1006.39 1005.31 1004.56 1005.07 1005.21 1006.08 1006.58 1007.29 1008.13 1008.47 1009.14 1008.92 1008.97 1008.89 1008.74 1008.93 1009.30 1009.39 1008.83 1008.63 1008.69 1008.89 1009.11 1009.42 1009.24 1009.41 1009.51 1010.07 1010.33 1010.81 1010.70
1015.11 1014.65 1014.09 1013.44 1013.10 1012.96 1013.12 1011.93 1010.03 1009.83 1009.40 1007.94 1007.59 1007.04 1006.15 1005.64 1005.61 1004.99 1005.07 1006.20 1006.79 1007.35 1007.78 1008.47 1008.38 1007.86 1008.32 1008.46 1008.84 1009.18 1009.34 1009.28 1009.15 1008.91 1009.41 1009.45 1009.29 1009.29 1009.49 1009.25 1008.97 1009.21 1009.63 1009.85 1010.85
1014.88 1014.37 1013.91 1013.14 1012.65 1012.60 1012.43 1010.71 1009.10 1009.25 1009.18 1006.90 1006.10 1005.78 1005.52 1005.66 1005.51 1004.90 1004.95 1005.55 1006.29 1007.20 1007.66 1008.05 1007.12 1007.29 1007.81 1007.90 1008.09 1008.65 1008.85 1008.92 1009.21 1009.52 1009.98 1010.22 1010.19 1009.57 1009.33 1009.34 1009.07 1008.79 1008.62 1009.45 1010.05
1014.55 1014.12 1013.76 1013.04 1012.70 1012.59 1011.48 1009.51 1009.20 1009.24 1008.92 1006.47 1005.38 1004.17 1004.54 1004.67 1004.69 1004.18 1004.27 1005.10 1005.92 1006.51 1007.38 1007.56 1006.64 1006.94 1007.12 1007.29 1007.77 1008.26 1008.14 1008.61 1009.55 1010.51 1010.96 1011.10 1011.15 1009.93 1009.30 1009.12 1008.90 1008.65 1008.51 1008.99 1009.43
1014.26 1013.84 1013.62 1013.66 1013.23 1012.26 1009.87 1009.46 1008.92 1008.94 1008.01 1004.97 1004.15 1003.20 1003.35 1003.87 1003.55 1003.64 1003.71 1004.45 1005.39 1005.96 1006.83 1006.69 1006.42 1006.57 1006.85 1006.73 1007.61 1008.35 1007.99 1009.28 1010.34 1011.35 1011.96 1011.94 1012.28 1009.75 1009.35 1008.89 1008.60 1008.29 1008.27 1008.64 1009.07
1013.69 1013.52 1013.35 1013.27 1013.16 1010.12 1009.47 1009.14 1008.82 1009.16 1006.85 1004.07 1003.25 1003.19 1003.61 1003.52 1003.42 1003.41 1003.70 1004.03 1004.71 1005.72 1006.27 1006.36 1005.98 1006.16 1006.42 1007.07 1007.34 1008.29 1009.13 1010.48 1011.81 1012.71 1013.40 1012.29 1012.31 1009.46 1008.77 1007.40 1007.22 1007.47 1007.74 1008.09 1008.27
1012.88 1012.76 1013.03 1012.49 1010.83 1009.33 1009.38 1009.34 1009.71 1008.49 1005.61 1004.11 1003.38 1003.37 1003.46 1003.57 1003.54 1003.45 1003.99 1004.55 1005.24 1006.06 1006.67 1006.32 1006.13 1006.03 1006.44 1007.17 1007.81 1008.46 1010.10 1011.65 1013.25 1013.73 1013.14 1012.52 1012.41 1009.30 1007.73 1006.66 1006.36 1006.50 1007.01 1007.24 1007.74
1011.88 1011.29 1010.74 1010.51 1009.79 1009.77 1009.57 1009.53 1009.41 1007.16 1005.64 1003.93 1003.25 1003.34 1003.49 1003.51 1003.78 1003.94 1004.46 1005.27 1005.57 1005.94 1006.75 1006.77 1006.29 1005.79 1006.19 1006.74 1007.44 1008.63 1009.47 1011.35 1012.82 1013.79 1013.08 1012.72 1011.05 1007.87 1006.58 1005.95 1005.71 1005.42 1005.82 1005.98 1006.30
1011.02 1010.57 1010.44 1008.57 1009.48 1009.65 1009.62 1010.01 1008.48 1007.01 1005.43 1004.42 1003.44 1003.28 1003.60 1003.59 1003.84 1004.30 1004.72 1005.21 1005.33 1005.64 1006.35 1006.68 1006.12 1005.45 1005.22 1005.58 1006.48 1008.25 1009.47 1010.19 1011.82 1013.10 1013.32 1011.73 1009.89 1007.43 1006.22 1005.98 1005.78 1005.56 1005.78 1005.95 1006.00
1011.38 1010.66 1009.15 1007.80 1008.64 1009.22 1009.60 1009.23 1008.13 1006.51 1005.14 1004.42 1004.07 1003.50 1003.64 1003.73 1004.16 1004.49 1004.78 1003.92 1004.41 1004.57 1004.74 1005.65 1006.18 1005.47 1004.96 1005.08 1006.25 1006.71 1008.07 1010.23 1012.05 1013.15 1012.77 1011.22 1009.98 1008.12 1006.33 1005.53 1005.36 1005.51 1005.08 1004.86 1005.44
1011.25 1010.34 1007.99 1007.60 1007.92 1009.01 1009.71 1009.15 1007.63 1006.06 1005.11 1004.62 1004.21 1003.90 1003.33 1003.24 1003.41 1004.12 1004.03 1003.45 1003.29 1003.69 1004.39 1005.41 1005.80 1005.86 1005.14 1005.16 1005.67 1006.70 1007.89 1009.20 1010.42 1011.63 1011.67 1010.77 1009.07 1005.76 1005.11 1004.61 1004.65 1004.87 1004.50 1004.13 1004.71
1011.87 1010.26 1008.00 1008.25 1008.57 1009.70 1009.55 1008.25 1007.00 1005.93 1005.15 1004.81 1004.13 1003.83 1003.22 1002.95 1003.19 1003.41 1003.30 1002.55 1002.10 1002.64 1004.12 1004.30 1005.13 1005.45 1005.34 1004.48 1004.77 1005.28 1006.44 1007.92 1009.62 1010.60 1010.84 1010.02 1007.12 1004.81 1004.34 1003.98 1003.99 1004.25 1004.06 1004.07 1004.42
1012.91 1011.26 1008.36 1008.23 1009.07 1009.65 1008.89 1007.84 1006.80 1005.92 1005.19 1004.68 1004.11 1003.49 1003.19 1003.11 1003.22 1003.24 1002.72 1001.58 1001.83 1002.17 1002.34 1003.70 1004.84 1005.58 1005.54 1005.05 1004.70 1004.83 1005.25 1005.96 1007.19 1008.49 1009.29 1009.02 1006.07 1004.70 1004.38 1004.13 1003.71 1003.81 1004.07 1003.86 1004.65
1013.02 1011.78 1009.82 1009.03 1009.35 1009.16 1008.83 1007.81 1006.70 1005.29 1004.95 1004.41 1003.90 1003.45 1003.57 1003.56 1003.37 1003.41 1003.10 1001.95 1001.91 1002.06 1001.77 1002.24 1004.14 1004.67 1004.96 1004.31 1003.77 1004.10 1004.19 1004.90 1006.09 1007.59 1007.73 1006.90 1005.18 1004.13 1004.45 1004.31 1003.84 1003.53 1003.80 1003.64 1003.87
1013.14 1012.54 1011.51 1010.51 1010.20 1009.55 1008.92 1007.84 1007.02 1005.85 1004.73 1004.45 1004.23 1004.41 1003.99 1004.22 1004.13 1004.04 1003.73 1003.26 1002.28 1002.42 1002.57 1002.78 1004.12 1004.08 1003.51 1003.12 1003.35 1003.20 1003.33 1004.04 1004.74 1004.77 1005.86 1004.36 1004.76 1003.32 1003.18 1003.49 1003.64 1002.99 1003.11 1003.54 1003.67
1013.47 1013.16 1012.03 1011.37 1010.61 1009.98 1009.10 1008.51 1007.58 1006.59 1005.74 1005.17 1005.03 1004.91 1004.34 1004.85 1004.83 1004.67 1004.46 1004.29 1004.12 1003.47 1003.83 1004.06 1004.27 1004.33 1004.10 1003.36 1003.11 1002.96 1002.57 1002.75 1002.93 1003.53 1003.76 1003.58 1003.27 1001.98 1002.34 1002.76 1002.93 1002.58 1002.46 1002.28 1002.64
1013.70 1013.11 1012.78 1012.15 1011.30 1010.45 1009.89 1008.94 1008.11 1007.32 1006.19 1005.76 1005.41 1005.39 1005.16 1005.04 1004.92 1004.65 1004.61 1004.74 1004.83 1004.86 1004.90 1005.06 1005.16 1005.11 1004.84 1003.79 1003.59 1003.25 1002.04 1001.51 1001.57 1001.89 1002.38 1002.72 1001.92 1001.40 1001.81 1002.37 1002.22 1001.88 1001.76 1001.41 1001.62
Thickness
5770 5774 5777 5780 5782 5784 5786 5789 5792 5794 5798 5801 5803 5806 5809 5813 5826 5822 5824 5845 5845 5845 5840 5832 5827 5822 5819 5806 5808 5807 5780 5777 5794 5791 5796 5819 5808 5812 5819 5805 5807 5813 5805 5803 5799
5769 5773 5777 5780 5784 5785 5787 5790 5793 5796 5800 5803 5805 5808 5811 5813 5821 5825 5853 5855 5853 5848 5837 5824 5816 5820 5804 5801 5803 5796 5774 5789 5816 5815 5810 5818 5818 5812 5805 5800 5793 5798 5804 5804 5799
5768 5772 5777 5781 5785 5787 5788 5790 5794 5797 5800 5804 5807 5811 5814 5814 5820 5842 5862 5859 5856 5853 5845 5839 5834 5827 5808 5806 5799 5798 5790 5815 5824 5826 5825 5817 5814 5818 5803 5790 5799 5793 5794 5795 5793
5767 5771 5774 5779 5784 5787 5789 5790 5792 5797 5801 5804 5809 5812 5816 5816 5800 5855 5860 5863 5857 5854 5845 5834 5830 5819 5809 5803 5815 5799 5820 5817 5826 5832 5826 5818 5820 5808 5811 5810 5814 5807 5803 5796 5791
5764 5769 5773 5777 5782 5787 5789 5791 5793 5796 5801 5806 5808 5812 5817 5815 5823 5860 5866 5860 5854 5850 5841 5836 5828 5817 5803 5808 5814 5800 5814 5827 5834 5840 5830 5831 5820 5815 5811 5818 5813 5805 5800 5797 5795
5762 5766 5771 5776 5781 5784 5788 5792 5793 5796 5800 5805 5808 5810 5812 5801 5854 5855 5858 5851 5852 5846 5841 5844 5834 5830 5816 5807 5805 5820 5817 5822 5827 5827 5832 5817 5813 5823 5812 5816 5807 5803 5797 5796 5794
5759 5765 5769 5773 5779 5783 5786 5790 5794 5796 5800 5804 5806 5808 5805 5818 5854 5853 5853 5847 5850 5848 5836 5846 5844 5829 5823 5810 5822 5818 5805 5821 5824 5823 5819 5825 5801 5802 5820 5816 5804 5801 5795 5791 5792
5755 5760 5766 5771 5776 5782 5787 5790 5793 5797 5799 5802 5803 5806 5799 5848 5850 5845 5845 5838 5842 5849 5844 5845 5844 5827 5818 5824 5818 5802 5799 5787 5812 5814 5815 5814 5781 5810 5815 5810 5802 5798 5799 5796 5795
5749 5755 5760 5766 5772 5778 5786 5791 5794 5797 5796 5798 5798 5802 5798 5848 5836 5849 5846 5832 5829 5832 5838 5842 5828 5814 5814 5796 5786 5786 5773 5782 5795 5817 5813 5803 5787 5809 5811 5808 5803 5803 5801 5802 5798
5743 5749 5755 5760 5766 5772 5781 5789 5790 5791 5790 5792 5797 5791 5813 5825 5838 5845 5848 5841 5825 5814 5812 5814 5807 5795 5789 5782 5759 5770 5773 5780 5784 5805 5807 5799 5796 5806 5807 5806 5800 5799 5802 5801 5799
5737 5743 5749 5754 5760 5765 5773 5782 5780 5778 5786 5792 5797 5802 5818 5837 5849 5836 5844 5830 5824 5812 5787 5798 5780 5774 5786 5798 5805 5794 5787 5782 5795 5808 5804 5797 5793 5792 5801 5797 5798 5796 5799 5800 5804
5734 5739 5744 5750 5755 5758 5758 5771 5785 5789 5776 5802 5805 5807 5819 5827 5813 5826 5839 5811 5804 5788 5796 5786 5774 5800 5806 5806 5797 5788 5783 5778 5794 5807 5797 5794 5791 5798 5795 5797 5802 5798 5798 5803 5795
5729 5734 5739 5746 5752 5754 5755 5773 5791 5790 5770 5793 5807 5806 5810 5816 5804 5809 5824 5815 5802 5787 5787 5774 5796 5810 5802 5799 5794 5788 5780 5784 5786 5797 5795 5790 5782 5791 5799 5798 5802 5805 5809 5806 5798
5725 5729 5733 5741 5748 5746 5758 5779 5783 5782 5743 5774 5794 5807 5814 5818 5803 5827 5831 5815 5802 5788 5787 5786 5806 5802 5799 5794 5798 5777 5803 5804 5795 5777 5757 5781 5745 5781 5792 5790 5795 5801 5802 5799 5802
5721 5726 5728 5729 5732 5746 5769 5772 5780 5774 5717 5793 5793 5828 5817 5808 5815 5814 5833 5817 5790 5795 5789 5786 5794 5794 5793 5800 5797 5788 5807 5793 5782 5769 5762 5764 5744 5771 5785 5783 5787 5797 5803 5802 5800
5720 5722 5724 5726 5728 5756 5764 5769 5771 5728 5717 5781 5798 5794 5793 5803 5808 5814 5812 5823 5815 5796 5796 5793 5815 5805 5802 5798 5804 5800 5786 5770 5757 5743 5729 5756 5747 5768 5777 5797 5801 5805 5808 5808 5805
5722 5722 5721 5726 5743 5756 5758 5758 5718 5703 5770 5776 5779 5785 5787 5783 5792 5799 5788 5783 5771 5755 5757 5785 5788 5806 5802 5788 5792 5783 5758 5729 5722 5720 5725 5751 5743 5772 5800 5810 5812 5806 5808 5814 5811
5725 5730 5735 5738 5746 5746 5750 5734 5710 5740 5747 5779 5788 5779 5773 5783 5782 5787 5777 5765 5780 5778 5758 5752 5745 5787 5797 5791 5779 5772 5764 5723 5719 5710 5732 5748 5741 5780 5813 5818 5822 5825 5825 5826 5823
5727 5732 5734 5751 5743 5743 5735 5705 5716 5730 5760 5763 5775 5770 5768 5777 5779 5778 5770 5765 5777 5780 5756 5741 5752 5801 5806 5805 5799 5770 5757 5772 5745 5736 5727 5747 5768 5798 5813 5814 5818 5820 5820 5818 5822
5717 5723 5738 5751 5746 5739 5719 5709 5724 5745 5761 5762 5750 5770 5756 5762 5765 5761 5757 5787 5783 5791 5795 5775 5752 5783 5801 5809 5795 5786 5785 5745 5727 5718 5724 5742 5749 5760 5797 5808 5816 5815 5824 5828 5825
5715 5727 5745 5748 5746 5726 5704 5705 5729 5749 5761 5752 5754 5755 5768 5768 5764 5752 5766 5784 5796 5796 5791 5774 5766 5766 5789 5777 5774 5775 5765 5752 5754 5732 5730 5729 5748 5799 5808 5819 5820 5820 5828 5830 5829
5699 5718 5738 5737 5716 5698 5703 5718 5739 5744 5755 5751 5758 5757 5766 5776 5770 5762 5766 5787 5808 5799 5776 5787 5767 5756 5766 5800 5804 5794 5776 5763 5745 5745 5728 5736 5763 5824 5823 5829 5829 5827 5833 5834 5833
5684 5693 5728 5730 5698 5697 5710 5724 5733 5737 5742 5749 5752 5769 5774 5769 5761 5769 5784 5811 5809 5797 5786 5787 5756 5733 5746 5770 5790 5787 5791 5789 5770 5755 5737 5738 5768 5814 5818 5823 5831 5829 5832 5836 5830
5681 5697 5706 5711 5703 5708 5713 5717 5723 5746 5743 5751 5756 5760 5758 5758 5768 5766 5773 5799 5803 5806 5811 5809 5757 5764 5753 5762 5786 5785 5796 5790 5776 5746 5750 5757 5789 5810 5806 5811 5822 5828 5829 5833 5835
5670 5681 5687 5688 5695 5703 5707 5715 5717 5722 5744 5744 5749 5743 5753 5744 5750 5754 5767 5774 5797 5797 5800 5792 5763 5765 5782 5791 5794 5796 5801 5788 5778 5784 5766 5799 5779 5809 5817 5814 5818 5831 5830 5825 5826
5663 5666 5673 5675 5680 5692 5691 5699 5708 5714 5726 5730 5731 5738 5743 5733 5743 5747 5759 5765 5766 5781 5779 5775 5766 5770 5770 5784 5790 5786 5794 5796 5797 5789 5785 5797 5793 5823 5827 5822 5821 5830 5833 5834 5831
5643 5652 5658 5664 5671 5679 5681 5692 5701 5706 5728 5730 5734 5730 5732 5743 5754 5760 5763 5765 5769 5768 5763 5759 5757 5751 5753 5777 5774 5757 5785 5801 5806 5806 5806 5786 5813 5830 5827 5820 5823 5830 5831 5838 5839